This is the latest recevied weather packets stored in our database for station/object KD9IXX-13. If no packets are shown the sender has not sent any weather packets the latest 10 day(s).
| Time | Temp. | Humidity | Pressure | Rain* | Wind** | Luminosity | Snow |
|---|---|---|---|---|---|---|---|
| 1778024402 | 12.22° C | 44% | 1010.2 hPa | 0 mm | - | 39 W/m² | - |
| 1778024102 | 12.22° C | 44% | 1010.4 hPa | 0 mm | - | 34 W/m² | - |
| 1778023802 | 12.22° C | 43% | 1010.3 hPa | 0 mm | - | 33 W/m² | - |
| 1778023502 | 12.22° C | 42% | 1010.2 hPa | 0 mm | - | 37 W/m² | - |
| 1778023202 | 12.22° C | 42% | 1009.9 hPa | 0 mm | - | 46 W/m² | - |
| 1778022903 | 12.22° C | 42% | 1010.1 hPa | 0 mm | - | 56 W/m² | - |
| 1778022602 | 12.22° C | 42% | 1010.2 hPa | 0 mm | - | 65 W/m² | - |
| 1778022302 | 12.22° C | 42% | 1010.3 hPa | 0 mm | - | 83 W/m² | - |
| 1778022002 | 12.22° C | 43% | 1010.4 hPa | 0 mm | - | 73 W/m² | - |
| 1778021702 | 12.22° C | 42% | 1010.5 hPa | 0 mm | - | 83 W/m² | - |
| 1778021402 | 12.22° C | 43% | 1010.4 hPa | 0 mm | - | 85 W/m² | - |
| 1778021103 | 12.22° C | 40% | 1010.6 hPa | 0 mm | - | 82 W/m² | - |
| 1778020802 | 12.22° C | 42% | 1010.7 hPa | 0 mm | - | 87 W/m² | - |
| 1778020502 | 12.22° C | 41% | 1010.7 hPa | 0 mm | - | 84 W/m² | - |
| 1778020202 | 12.22° C | 41% | 1010.7 hPa | 0 mm | - | 100 W/m² | - |
| 1778019903 | 12.22° C | 44% | 1010.7 hPa | 0 mm | - | 102 W/m² | - |
| 1778019602 | 12.22° C | 43% | 1010.5 hPa | 0 mm | - | 115 W/m² | - |
| 1778019302 | 12.22° C | 42% | 1010.5 hPa | 0 mm | - | 104 W/m² | - |
| 1778019002 | 12.22° C | 43% | 1010.4 hPa | 0 mm | - | 107 W/m² | - |
| 1778018702 | 12.22° C | 42% | 1010.5 hPa | 0 mm | - | 108 W/m² | - |
| 1778018402 | 12.22° C | 43% | 1010.7 hPa | 0 mm | - | 103 W/m² | - |
| 1778018102 | 12.22° C | 43% | 1010.7 hPa | 0 mm | - | 104 W/m² | - |
| 1778017802 | 12.22° C | 45% | 1010.7 hPa | 0 mm | - | 112 W/m² | - |
| 1778017502 | 12.22° C | 43% | 1010.8 hPa | 0 mm | - | 108 W/m² | - |
| 1778017202 | 12.78° C | 44% | 1010.7 hPa | 0 mm | - | 133 W/m² | - |
* Rain latest hour (hover to see other rain measurements)
** Current wind speed in m/s (hover to see current wind gust speed)